Flag for U.S.A. Weather past 2 weeks in Cupertino, California, U.S.A.

Now
70 °F

Sunny.


Feels Like: 74 °F
Forecast: 64 / 87 °F
Wind: 5 mph from North

Location: Moffett Field

Current Time: Jul 29, 2014 at 11:00:07 AM

Latest Report: Jul 29, 2014 at 9:56 AM


Visibility: 10 mi

Pressure: 30.06 "Hg

Humidity: 71%

Dew point: 60 °F

Location of CupertinoLocation

Historic Weather in Cupertino — Graph

°F

Cupertino temperature yesterday

Maximum temperature yesterday: 77 °F (at 1:56 PM)
Minimum temperature yesterday: 62 °F (at 2:56 AM)
Average temperature yesterday: 68 °F

Past Weeks' High & Low Weather Summary

 TemperatureHumidityPressure
High93 °F (Jul 25, 2:56 PM)90% (Jul 24, 5:56 AM)30.15 "Hg (Jul 24, 5:56 AM)
Low61 °F (Jul 24, 5:56 AM)19% (Jul 25, 1:56 PM)29.83 "Hg (Jul 25, 4:56 PM)
Average70 °F69%29.98 "Hg
* Reported Jul 14 9:56 AM — Jul 29 9:56 AM, Cupertino, Weather by CustomWeather, © 2014

Note: Actual official high and low records may vary slightly from our data, if they occured in-between our weather recording intervals... More about our weather records

Advertising

Cupertino weather history for previous 24 hours

 ConditionsComfort  
Time TempWeatherWind HumidityBarometerVisibility
9:56 AM
Jul 29
70 °FSunny.5 mph71%30.06 "Hg10 mi
8:56 AM67 °FPassing clouds.5 mph79%30.07 "Hg10 mi
7:56 AM65 °FLow clouds.5 mph81%30.07 "Hg10 mi
7:04 AM64 °FPassing clouds.5 mph83%30.05 "Hg10 mi
6:56 AM63 °FPassing clouds.5 mph87%30.06 "Hg10 mi
5:56 AM63 °FPassing clouds.3 mph87%30.05 "Hg10 mi
4:56 AM63 °FPassing clouds.6 mph87%30.05 "Hg10 mi
3:56 AM64 °FClear.5 mph84%30.06 "Hg10 mi
2:56 AM65 °FClear.No wind81%30.06 "Hg10 mi
1:56 AM65 °FClear.5 mph81%30.05 "Hg10 mi
12:56 AM65 °FClear.No wind78%30.06 "Hg10 mi
11:56 PM
Jul 28
65 °FClear.No wind81%30.06 "Hg10 mi
10:56 PM65 °FClear.5 mph81%30.06 "Hg10 mi
9:56 PM66 °FClear.5 mph78%30.06 "Hg10 mi
8:56 PM67 °FSunny.6 mph79%30.04 "Hg10 mi
7:56 PM69 °FSunny.9 mph70%30.03 "Hg10 mi
6:56 PM72 °FSunny.7 mph68%30.02 "Hg10 mi
5:56 PM73 °FSunny.9 mph64%30.02 "Hg10 mi
4:56 PM74 °FSunny.14 mph62%30.03 "Hg10 mi
3:56 PM74 °FSunny.15 mph62%30.03 "Hg10 mi
2:56 PM76 °FSunny.10 mph60%30.04 "Hg10 mi
1:56 PM77 °FSunny.8 mph56%30.04 "Hg10 mi
12:56 PM76 °FSunny.7 mph58%30.05 "Hg10 mi
11:56 AM74 °FSunny.7 mph62%30.06 "Hg10 mi
Weather by CustomWeather, © 2014

See weather overviewHow to use our weather pages